| time (UTC) | temp C | wind direction | speed KPH | gust KPH | rain 1hr cm | rain 24hr cm | rain mn cm | humidity % | barometer mb |
| 20260506114133 | 20 | 56 | 3.2 | 12.9 | 0.00 | 0.23 | 0.00 | 58 | 1005.5 |
| 20260506113632 | 20 | 67 | 3.2 | 12.9 | 0.00 | 0.23 | 0.00 | 60 | 1005.6 |
| 20260506113455 | 20 | 89 | 4.8 | 12.9 | 0.00 | 0.23 | 0.00 | 60 | 1005.7 |
| 20260506112633 | 20 | 51 | 4.8 | 12.9 | 0.00 | 0.23 | 0.00 | 60 | 1005.6 |
| 20260506112132 | 19 | 89 | 4.8 | 11.3 | 0.00 | 0.23 | 0.00 | 60 | 1005.6 |
| 20260506111631 | 19 | 139 | 3.2 | 8.0 | 0.00 | 0.23 | 0.00 | 62 | 1005.6 |
| 20260506111131 | 19 | 164 | 3.2 | 9.7 | 0.00 | 0.23 | 0.00 | 61 | 1005.7 |
| 20260506110631 | 18 | 148 | 3.2 | 9.7 | 0.00 | 0.23 | 0.00 | 62 | 1005.8 |
| 20260506110132 | 18 | 264 | 3.2 | 8.0 | 0.00 | 0.23 | 0.00 | 63 | 1005.7 |
| 20260506105938 | 18 | 178 | 3.2 | 8.0 | 0.00 | 0.23 | 0.00 | 64 | 1005.9 |
| 20260506105131 | 18 | 223 | 3.2 | 8.0 | 0.00 | 0.23 | 0.00 | 64 | 1005.9 |
| 20260506104631 | 18 | 286 | 4.8 | 11.3 | 0.00 | 0.23 | 0.00 | 63 | 1006.0 |
| 20260506104433 | 18 | 274 | 4.8 | 11.3 | 0.00 | 0.23 | 0.00 | 63 | 1006.2 |
| 20260506103632 | 18 | 108 | 3.2 | 14.5 | 0.00 | 0.23 | 0.00 | 63 | 1006.3 |
| 20260506103133 | 19 | 269 | 3.2 | 14.5 | 0.00 | 0.23 | 0.00 | 62 | 1006.4 |
| 20260506102631 | 19 | 107 | 3.2 | 11.3 | 0.00 | 0.23 | 0.00 | 63 | 1006.2 |
| 20260506102131 | 19 | 86 | 3.2 | 11.3 | 0.00 | 0.23 | 0.00 | 64 | 1006.3 |
| 20260506101631 | 18 | 178 | 3.2 | 8.0 | 0.00 | 0.23 | 0.00 | 64 | 1006.3 |
| 20260506101132 | 18 | 117 | 3.2 | 8.0 | 0.00 | 0.23 | 0.00 | 65 | 1006.2 |
| 20260506100632 | 18 | 129 | 3.2 | 8.0 | 0.00 | 0.23 | 0.00 | 66 | 1006.3 |
| 20260506100133 | 18 | 82 | 3.2 | 9.7 | 0.00 | 0.23 | 0.00 | 67 | 1006.2 |
| 20260506095733 | 18 | 46 | 3.2 | 11.3 | 0.00 | 0.23 | 0.00 | 67 | 1006.3 |
| 20260506095714 | 18 | 223 | 3.2 | 9.7 | 0.00 | 0.23 | 0.00 | 67 | 1006.3 |
| 20260506094632 | 18 | 89 | 4.8 | 11.3 | 0.00 | 0.23 | 0.00 | 67 | 1006.3 |
| 20260506094130 | 18 | 86 | 4.8 | 11.3 | 0.00 | 0.23 | 0.00 | 66 | 1006.3 |
| 20260506093631 | 18 | 84 | 4.8 | 11.3 | 0.00 | 0.23 | 0.00 | 66 | 1006.4 |
| 20260506093131 | 18 | 112 | 3.2 | 11.3 | 0.00 | 0.23 | 0.00 | 67 | 1006.3 |
| 20260506092631 | 18 | 89 | 3.2 | 11.3 | 0.00 | 0.23 | 0.00 | 67 | 1006.5 |
| 20260506092129 | 18 | 79 | 3.2 | 11.3 | 0.00 | 0.23 | 0.00 | 67 | 1006.4 |
| 20260506091631 | 17 | 107 | 3.2 | 11.3 | 0.00 | 0.23 | 0.00 | 68 | 1006.5 |
| 20260506091428 | 17 | 115 | 3.2 | 8.0 | 0.00 | 0.23 | 0.00 | 68 | 1006.4 |
| 20260506090631 | 17 | 254 | 3.2 | 9.7 | 0.00 | 0.23 | 0.00 | 67 | 1006.5 |
| 20260506090134 | 17 | 200 | 3.2 | 11.3 | 0.00 | 0.23 | 0.00 | 67 | 1006.6 |
| 20260506085935 | 18 | 89 | 3.2 | 11.3 | 0.00 | 0.23 | 0.00 | 68 | 1006.6 |
| 20260506085133 | 18 | 344 | 3.2 | 8.0 | 0.00 | 0.23 | 0.00 | 68 | 1006.6 |
| 20260506084630 | 18 | 84 | 3.2 | 8.0 | 0.00 | 0.23 | 0.00 | 69 | 1006.5 |
| 20260506084131 | 17 | 117 | 3.2 | 11.3 | 0.00 | 0.23 | 0.00 | 71 | 1006.7 |
| 20260506083933 | 17 | 75 | 3.2 | 11.3 | 0.00 | 0.23 | 0.00 | 71 | 1006.6 |
| 20260506083129 | 17 | 250 | 3.2 | 8.0 | 0.00 | 0.23 | 0.00 | 73 | 1006.5 |
| 20260506082933 | 16 | 84 | 3.2 | 9.7 | 0.00 | 0.23 | 0.00 | 74 | 1006.6 |
| 20260506082128 | 16 | 63 | 3.2 | 9.7 | 0.00 | 0.23 | 0.00 | 75 | 1006.8 |
| 20260506081632 | 16 | 269 | 3.2 | 9.7 | 0.00 | 0.23 | 0.00 | 76 | 1006.9 |
| 20260506081130 | 16 | 135 | 3.2 | 9.7 | 0.00 | 0.23 | 0.00 | 76 | 1006.9 |
| 20260506080631 | 15 | 67 | 3.2 | 9.7 | 0.00 | 0.23 | 0.00 | 76 | 1006.9 |
| 20260506080124 | 15 | 35 | 3.2 | 9.7 | 0.00 | 0.23 | 0.00 | 77 | 1007.0 |
| 20260506073114 | 15 | 0 | 3.2 | 9.7 | 0.00 | 0.23 | 0.00 | 78 | 1006.8 |
| 20260506072614 | 15 | 241 | 3.2 | 9.7 | 0.00 | 0.23 | 0.00 | 78 | 1006.9 |
| 20260506072114 | 15 | 135 | 3.2 | 8.0 | 0.00 | 0.23 | 0.00 | 79 | 1006.8 |
| 20260506071612 | 15 | 165 | 3.2 | 9.7 | 0.00 | 0.23 | 0.00 | 79 | 1006.9 |
| 20260506071114 | 15 | 105 | 3.2 | 9.7 | 0.00 | 0.23 | 0.00 | 80 | 1006.8 |
| 20260506070612 | 14 | 161 | 3.2 | 9.7 | 0.00 | 0.23 | 0.00 | 80 | 1006.9 |
| 20260506070111 | 14 | 68 | 3.2 | 8.0 | 0.00 | 0.23 | 0.00 | 80 | 1006.9 |
| 20260506062105 | 13 | 152 | 1.6 | 4.8 | 0.00 | 0.23 | 0.00 | 86 | 1006.7 |
| 20260506061605 | 12 | 89 | 1.6 | 3.2 | 0.00 | 0.23 | 0.00 | 86 | 1006.7 |
| 20260506061103 | 12 | 269 | 1.6 | 3.2 | 0.00 | 0.23 | 0.00 | 86 | 1006.8 |
| 20260506060602 | 12 | 63 | 3.2 | 4.8 | 0.00 | 0.23 | 0.00 | 86 | 1006.9 |
| 20260506060405 | 12 | 58 | 3.2 | 6.4 | 0.00 | 0.23 | 0.00 | 87 | 1006.9 |
| 20260506051048 | 11 | 124 | 1.6 | 3.2 | 0.00 | 0.23 | 0.00 | 88 | 1007.1 |
| 20260506050548 | 11 | 28 | 0.0 | 3.2 | 0.00 | 0.23 | 0.00 | 87 | 1007.2 |
| 20260506050342 | 11 | 105 | 0.0 | 4.8 | 0.00 | 0.23 | 0.00 | 87 | 1007.2 |
| 20260506045043 | 11 | 89 | 1.6 | 3.2 | 0.00 | 0.23 | 0.00 | 87 | 1007.2 |
| 20260506044542 | 11 | 46 | 0.0 | 3.2 | 0.00 | 0.23 | 0.00 | 87 | 1007.1 |
| 20260506044043 | 11 | 269 | 1.6 | 3.2 | 0.00 | 0.23 | 0.00 | 87 | 1007.1 |
| 20260506043542 | 11 | 258 | 1.6 | 3.2 | 0.00 | 0.23 | 0.00 | 87 | 1007.0 |
| 20260506043042 | 11 | 246 | 1.6 | 4.8 | 0.00 | 0.23 | 0.00 | 87 | 1007.1 |
| 20260506042540 | 11 | 269 | 1.6 | 6.4 | 0.00 | 0.23 | 0.00 | 87 | 1007.1 |
| 20260506042334 | 11 | 314 | 1.6 | 11.3 | 0.00 | 0.23 | 0.00 | 87 | 1007.2 |
| 20260506041538 | 11 | 178 | 3.2 | 11.3 | 0.00 | 0.23 | 0.00 | 87 | 1007.2 |
| 20260506041332 | 11 | 89 | 3.2 | 11.3 | 0.00 | 0.23 | 0.00 | 87 | 1007.3 |
| 20260506040539 | 11 | 262 | 1.6 | 8.0 | 0.00 | 0.23 | 0.00 | 87 | 1007.3 |
| 20260506040040 | 11 | 84 | 1.6 | 6.4 | 0.00 | 0.23 | 0.00 | 87 | 1007.2 |
| 20260506035828 | 11 | 223 | 1.6 | 8.0 | 0.00 | 0.23 | 0.00 | 87 | 1007.2 |
| 20260506035027 | 11 | 60 | 3.2 | 8.0 | 0.00 | 0.23 | 0.00 | 87 | 1007.1 |
| 20260506034826 | 11 | 314 | 3.2 | 11.3 | 0.00 | 0.23 | 0.00 | 87 | 1007.1 |
| 20260506034325 | 11 | 89 | 3.2 | 11.3 | 0.00 | 0.23 | 0.00 | 87 | 1007.2 |
| 20260506033527 | 11 | 46 | 3.2 | 8.0 | 0.00 | 0.23 | 0.00 | 87 | 1007.3 |
| 20260506033029 | 11 | 98 | 1.6 | 4.8 | 0.00 | 0.23 | 0.00 | 87 | 1007.2 |
| 20260506032523 | 11 | 324 | 1.6 | 4.8 | 0.00 | 0.23 | 0.00 | 87 | 1007.1 |
| 20260506032021 | 11 | 331 | 1.6 | 8.0 | 0.00 | 0.23 | 0.00 | 87 | 1007.1 |
| 20260506031522 | 11 | 241 | 1.6 | 8.0 | 0.00 | 0.23 | 0.00 | 87 | 1007.0 |
| 20260506031020 | 11 | 46 | 1.6 | 6.4 | 0.00 | 0.23 | 0.00 | 87 | 1006.9 |
| 20260506030520 | 11 | 46 | 1.6 | 6.4 | 0.00 | 0.23 | 0.00 | 87 | 1006.9 |
| 20260506030021 | 11 | 241 | 1.6 | 6.4 | 0.00 | 0.23 | 0.00 | 87 | 1007.0 |
| 20260506025518 | 11 | 296 | 1.6 | 6.4 | 0.00 | 0.23 | 0.00 | 87 | 1007.1 |
| 20260506025017 | 11 | 269 | 1.6 | 6.4 | 0.00 | 0.23 | 0.00 | 87 | 1007.1 |
| 20260506024526 | 12 | 254 | 1.6 | 6.4 | 0.00 | 0.23 | 0.00 | 87 | 1007.1 |
| 20260506024015 | 12 | 269 | 3.2 | 6.4 | 0.00 | 0.23 | 0.00 | 87 | 1007.1 |
| 20260506023511 | 12 | 1 | 3.2 | 6.4 | 0.00 | 0.23 | 0.00 | 87 | 1007.1 |
| 20260506023011 | 12 | 231 | 3.2 | 6.4 | 0.00 | 0.23 | 0.00 | 87 | 1007.1 |
| 20260506022504 | 12 | 227 | 3.2 | 11.3 | 0.00 | 0.23 | 0.00 | 87 | 1007.2 |
| 20260506022003 | 12 | 296 | 3.2 | 11.3 | 0.00 | 0.23 | 0.00 | 87 | 1007.2 |
| 20260506021505 | 12 | 239 | 3.2 | 9.7 | 0.00 | 0.23 | 0.00 | 88 | 1007.2 |
| 20260506021005 | 12 | 178 | 3.2 | 9.7 | 0.00 | 0.23 | 0.00 | 88 | 1007.2 |
| 20260506020506 | 12 | 260 | 3.2 | 9.7 | 0.00 | 0.23 | 0.00 | 88 | 1007.3 |
| 20260506020005 | 12 | 178 | 3.2 | 11.3 | 0.00 | 0.23 | 0.00 | 88 | 1007.3 |
| 20260506015802 | 12 | 76 | 3.2 | 11.3 | 0.00 | 0.23 | 0.00 | 88 | 1007.4 |
| 20260506015003 | 12 | 269 | 1.6 | 4.8 | 0.00 | 0.23 | 0.00 | 88 | 1007.3 |
| 20260506014505 | 12 | 223 | 1.6 | 6.4 | 0.00 | 0.23 | 0.00 | 88 | 1007.3 |
| 20260506014003 | 12 | 39 | 1.6 | 8.0 | 0.00 | 0.23 | 0.00 | 88 | 1007.4 |
| 20260506013907 | 12 | 82 | 0.0 | 4.8 | 0.00 | 0.23 | 0.00 | 88 | 1007.4 |
| 20260506013545 | 12 | 216 | 1.6 | 8.0 | 0.00 | 0.23 | 0.00 | 88 | 1007.3 |
| 20260506012503 | 12 | 145 | 1.6 | 3.2 | 0.00 | 0.23 | 0.00 | 88 | 1007.3 |
| 20260506012007 | 12 | 113 | 0.0 | 3.2 | 0.00 | 0.23 | 0.00 | 88 | 1007.4 |
| 20260506011502 | 12 | 108 | 1.6 | 3.2 | 0.00 | 0.23 | 0.00 | 87 | 1007.3 |
| 20260506011414 | 12 | 46 | 0.0 | 4.8 | 0.00 | 0.23 | 0.00 | 87 | 1007.4 |
| 20260506011054 | 12 | 269 | 1.6 | 3.2 | 0.00 | 0.23 | 0.00 | 87 | 1007.5 |
| 20260506005958 | 12 | 89 | 1.6 | 4.8 | 0.00 | 0.23 | 0.00 | 87 | 1007.5 |
| 20260506005458 | 12 | 76 | 1.6 | 4.8 | 0.00 | 0.23 | 0.00 | 87 | 1007.5 |
| 20260506004957 | 12 | 108 | 1.6 | 4.8 | 0.00 | 0.23 | 0.00 | 87 | 1007.5 |
| 20260506004459 | 12 | 89 | 1.6 | 4.8 | 0.00 | 0.23 | 0.00 | 87 | 1007.5 |
| 20260506003958 | 12 | 89 | 1.6 | 4.8 | 0.00 | 0.23 | 0.00 | 87 | 1007.5 |
| 20260506003458 | 12 | 72 | 1.6 | 3.2 | 0.00 | 0.23 | 0.00 | 87 | 1007.6 |
| 20260506003250 | 12 | 178 | 1.6 | 3.2 | 0.00 | 0.23 | 0.00 | 88 | 1007.6 |
| 20260506002457 | 12 | 89 | 1.6 | 4.8 | 0.00 | 0.23 | 0.00 | 88 | 1007.6 |
| 20260506001957 | 12 | 124 | 1.6 | 4.8 | 0.00 | 0.23 | 0.00 | 88 | 1007.7 |
| 20260506001455 | 12 | 89 | 1.6 | 4.8 | 0.00 | 0.23 | 0.00 | 88 | 1007.7 |
| 20260506000955 | 12 | 269 | 1.6 | 3.2 | 0.00 | 0.23 | 0.00 | 88 | 1007.8 |
| 20260506000454 | 12 | 269 | 0.0 | 3.2 | 0.00 | 0.23 | 0.00 | 88 | 1007.8 |
| 20260506000247 | 12 | 135 | 0.0 | 4.8 | 0.00 | 0.23 | 0.00 | 88 | 1007.9 |
| 20260505235451 | 12 | 314 | 1.6 | 4.8 | 0.00 | 0.23 | 0.00 | 88 | 1007.9 |
| 20260505234951 | 12 | 223 | 0.0 | 4.8 | 0.00 | 0.23 | 0.00 | 87 | 1007.9 |
| 20260505234743 | 12 | 257 | 0.0 | 4.8 | 0.00 | 0.23 | 0.00 | 87 | 1008.0 |
| 20260505233949 | 12 | 314 | 0.0 | 3.2 | 0.00 | 0.23 | 0.00 | 87 | 1008.0 |
| 20260505233754 | 12 | 135 | 0.0 | 3.2 | 0.00 | 0.23 | 0.00 | 87 | 1008.1 |
| 20260505232950 | 12 | 89 | 0.0 | 3.2 | 0.00 | 0.23 | 0.00 | 87 | 1008.0 |
| 20260505232757 | 12 | 303 | 1.6 | 3.2 | 0.00 | 0.23 | 0.00 | 87 | 1008.0 |
| 20260505231942 | 13 | 258 | 1.6 | 3.2 | 0.00 | 0.23 | 0.00 | 87 | 1008.0 |
| 20260505231747 | 13 | 269 | 0.0 | 3.2 | 0.00 | 0.23 | 0.00 | 87 | 1007.9 |
| 20260505230941 | 13 | 178 | 1.6 | 3.2 | 0.00 | 0.23 | 0.00 | 87 | 1007.8 |
| 20260505230437 | 13 | 314 | 0.0 | 3.2 | 0.00 | 0.23 | 0.00 | 87 | 1007.9 |
| 20260505225935 | 13 | 303 | 0.0 | 4.8 | 0.00 | 0.23 | 0.00 | 87 | 1007.7 |
| 20260505225434 | 13 | 206 | 1.6 | 4.8 | 0.00 | 0.23 | 0.00 | 87 | 1007.7 |
| 20260505224934 | 13 | 253 | 1.6 | 4.8 | 0.00 | 0.23 | 0.00 | 87 | 1007.7 |
| 20260505224433 | 13 | 269 | 0.0 | 3.2 | 0.00 | 0.23 | 0.00 | 87 | 1007.9 |
| 20260505223931 | 13 | 269 | 0.0 | 3.2 | 0.00 | 0.23 | 0.00 | 87 | 1007.9 |
| 20260505223431 | 13 | 46 | 0.0 | 3.2 | 0.00 | 0.23 | 0.00 | 87 | 1007.8 |
| 20260505222931 | 13 | 269 | 1.6 | 4.8 | 0.00 | 0.23 | 0.00 | 87 | 1007.9 |
| 20260505222432 | 13 | 46 | 1.6 | 4.8 | 0.00 | 0.23 | 0.00 | 87 | 1007.9 |
| 20260505221933 | 13 | 178 | 1.6 | 4.8 | 0.00 | 0.23 | 0.00 | 87 | 1007.9 |
| 20260505221431 | 13 | 258 | 0.0 | 3.2 | 0.00 | 0.23 | 0.00 | 87 | 1007.9 |
| 20260505220930 | 13 | 161 | 1.6 | 3.2 | 0.00 | 0.23 | 0.00 | 87 | 1008.0 |
| 20260505220748 | 13 | 241 | 1.6 | 4.8 | 0.00 | 0.23 | 0.00 | 87 | 1008.0 |
| 20260505220116 | 13 | 89 | 1.6 | 4.8 | 0.00 | 0.23 | 0.23 | 87 | 1007.9 |
| 20260505220030 | 13 | 213 | 1.6 | 4.8 | 0.00 | 0.23 | 0.23 | 87 | 1008.0 |
| 20260505214930 | 13 | 269 | 1.6 | 4.8 | 0.00 | 0.23 | 0.23 | 87 | 1007.9 |
| 20260505214735 | 13 | 259 | 1.6 | 8.0 | 0.00 | 0.23 | 0.23 | 87 | 1008.0 |
| 20260505213932 | 13 | 241 | 3.2 | 8.0 | 0.00 | 0.23 | 0.23 | 87 | 1007.8 |
| 20260505213431 | 13 | 165 | 1.6 | 8.0 | 0.00 | 0.23 | 0.23 | 87 | 1007.8 |
| 20260505212932 | 13 | 178 | 1.6 | 6.4 | 0.00 | 0.23 | 0.23 | 87 | 1007.9 |
| 20260505212440 | 13 | 245 | 1.6 | 8.0 | 0.00 | 0.23 | 0.23 | 87 | 1007.8 |
| 20260505211930 | 13 | 46 | 1.6 | 8.0 | 0.00 | 0.23 | 0.23 | 87 | 1007.8 |
| 20260505211430 | 13 | 331 | 1.6 | 3.2 | 0.00 | 0.23 | 0.23 | 87 | 1007.7 |
| 20260505210932 | 13 | 257 | 1.6 | 6.4 | 0.00 | 0.23 | 0.23 | 87 | 1007.5 |
| 20260505210430 | 13 | 246 | 1.6 | 6.4 | 0.00 | 0.23 | 0.23 | 87 | 1007.5 |
| 20260505210245 | 13 | 269 | 1.6 | 4.8 | 0.00 | 0.23 | 0.23 | 87 | 1007.4 |
| 20260505205430 | 13 | 314 | 1.6 | 6.4 | 0.00 | 0.23 | 0.23 | 87 | 1007.4 |
| 20260505204936 | 13 | 246 | 1.6 | 6.4 | 0.00 | 0.23 | 0.23 | 87 | 1007.3 |
| 20260505204430 | 13 | 296 | 1.6 | 6.4 | 0.00 | 0.23 | 0.23 | 87 | 1007.3 |
| 20260505203931 | 13 | 252 | 1.6 | 6.4 | 0.00 | 0.23 | 0.23 | 86 | 1007.3 |
| 20260505203430 | 13 | 269 | 3.2 | 6.4 | 0.00 | 0.23 | 0.23 | 86 | 1007.3 |
| 20260505202927 | 13 | 255 | 3.2 | 6.4 | 0.00 | 0.23 | 0.23 | 86 | 1007.2 |
| 20260505202438 | 14 | 248 | 3.2 | 8.0 | 0.00 | 0.23 | 0.23 | 86 | 1007.1 |
| 20260505201928 | 14 | 269 | 3.2 | 8.0 | 0.00 | 0.23 | 0.23 | 86 | 1007.0 |
| 20260505201426 | 14 | 269 | 3.2 | 8.0 | 0.00 | 0.23 | 0.23 | 86 | 1007.0 |
| 20260505200924 | 14 | 223 | 3.2 | 8.0 | 0.00 | 0.23 | 0.23 | 86 | 1007.0 |
| 20260505200425 | 14 | 288 | 3.2 | 6.4 | 0.00 | 0.23 | 0.23 | 86 | 1006.8 |
| 20260505195926 | 14 | 223 | 3.2 | 9.7 | 0.00 | 0.23 | 0.23 | 86 | 1006.7 |
| 20260505195527 | 14 | 220 | 3.2 | 9.7 | 0.00 | 0.23 | 0.23 | 86 | 1006.3 |
| 20260505195507 | 14 | 254 | 3.2 | 9.7 | 0.00 | 0.23 | 0.23 | 86 | 1006.4 |
| 20260505194423 | 14 | 253 | 3.2 | 8.0 | 0.00 | 0.23 | 0.23 | 86 | 1006.4 |
| 20260505193924 | 14 | 264 | 3.2 | 8.0 | 0.00 | 0.23 | 0.23 | 86 | 1006.3 |
| 20260505193424 | 14 | 314 | 1.6 | 6.4 | 0.00 | 0.23 | 0.23 | 86 | 1006.0 |
| 20260505192921 | 14 | 257 | 1.6 | 6.4 | 0.00 | 0.23 | 0.23 | 86 | 1006.2 |
| 20260505192420 | 14 | 279 | 1.6 | 4.8 | 0.00 | 0.23 | 0.23 | 85 | 1006.0 |
| 20260505191921 | 14 | 269 | 1.6 | 6.4 | 0.00 | 0.23 | 0.23 | 85 | 1006.0 |
| 20260505191416 | 14 | 283 | 3.2 | 6.4 | 0.00 | 0.23 | 0.23 | 85 | 1005.9 |
| 20260505191221 | 14 | 286 | 3.2 | 9.7 | 0.00 | 0.23 | 0.23 | 85 | 1005.9 |
| 20260505190416 | 14 | 269 | 3.2 | 9.7 | 0.00 | 0.23 | 0.23 | 85 | 1005.9 |
| 20260505185915 | 14 | 260 | 3.2 | 9.7 | 0.00 | 0.23 | 0.23 | 85 | 1005.8 |
| 20260505185415 | 14 | 255 | 1.6 | 8.0 | 0.00 | 0.23 | 0.23 | 85 | 1005.7 |
| 20260505184914 | 14 | 262 | 1.6 | 8.0 | 0.00 | 0.23 | 0.23 | 85 | 1005.7 |
| 20260505184416 | 15 | 241 | 1.6 | 6.4 | 0.00 | 0.23 | 0.23 | 85 | 1005.6 |
| 20260505183913 | 15 | 269 | 0.0 | 3.2 | 0.00 | 0.23 | 0.23 | 85 | 1005.5 |
| 20260505183718 | 15 | 46 | 0.0 | 3.2 | 0.00 | 0.23 | 0.23 | 86 | 1005.5 |
| 20260505183037 | 15 | 89 | 1.6 | 6.4 | 0.03 | 0.23 | 0.23 | 86 | 1005.5 |
| 20260505183006 | 15 | 46 | 0.0 | 4.8 | 0.03 | 0.23 | 0.23 | 85 | 1005.5 |
| 20260505181912 | 15 | 314 | 1.6 | 6.4 | 0.03 | 0.23 | 0.23 | 86 | 1005.5 |
| 20260505181722 | 15 | 250 | 3.2 | 6.4 | 0.05 | 0.23 | 0.23 | 86 | 1005.5 |
| 20260505180913 | 15 | 269 | 3.2 | 6.4 | 0.05 | 0.23 | 0.23 | 86 | 1005.5 |
| 20260505180415 | 15 | 95 | 1.6 | 6.4 | 0.05 | 0.23 | 0.23 | 86 | 1005.4 |
| 20260505175911 | 15 | 46 | 1.6 | 6.4 | 0.08 | 0.23 | 0.23 | 86 | 1005.3 |
| 20260505175406 | 15 | 269 | 3.2 | 6.4 | 0.08 | 0.23 | 0.23 | 86 | 1005.2 |
| 20260505174910 | 15 | 283 | 3.2 | 8.0 | 0.08 | 0.23 | 0.23 | 86 | 1005.2 |
| 20260505174404 | 15 | 314 | 3.2 | 8.0 | 0.08 | 0.23 | 0.23 | 85 | 1005.1 |
| 20260505173905 | 15 | 269 | 3.2 | 9.7 | 0.08 | 0.23 | 0.23 | 85 | 1005.2 |
| 20260505173403 | 15 | 246 | 3.2 | 11.3 | 0.08 | 0.23 | 0.23 | 85 | 1005.3 |
| 20260505172902 | 15 | 269 | 3.2 | 11.3 | 0.08 | 0.23 | 0.23 | 84 | 1005.3 |
| 20260505172404 | 15 | 276 | 3.2 | 8.0 | 0.10 | 0.23 | 0.23 | 84 | 1005.3 |
| 20260505171902 | 15 | 250 | 1.6 | 4.8 | 0.18 | 0.23 | 0.23 | 83 | 1005.3 |
| 20260505171403 | 15 | 68 | 1.6 | 3.2 | 0.15 | 0.20 | 0.20 | 83 | 1005.4 |
| 20260505170902 | 15 | 89 | 1.6 | 6.4 | 0.15 | 0.18 | 0.18 | 82 | 1005.4 |
| 20260505170402 | 15 | 269 | 3.2 | 8.0 | 0.15 | 0.18 | 0.18 | 82 | 1005.3 |
| 20260505165901 | 15 | 1 | 4.8 | 14.5 | 0.13 | 0.15 | 0.15 | 82 | 1005.0 |
| 20260505165400 | 15 | 223 | 4.8 | 14.5 | 0.13 | 0.15 | 0.15 | 82 | 1005.0 |
| 20260505164859 | 16 | 257 | 3.2 | 11.3 | 0.15 | 0.15 | 0.15 | 81 | 1005.1 |
| 20260505164356 | 16 | 274 | 3.2 | 12.9 | 0.15 | 0.15 | 0.15 | 82 | 1004.9 |
| 20260505163852 | 16 | 89 | 4.8 | 12.9 | 0.15 | 0.15 | 0.15 | 81 | 1005.0 |
| 20260505163354 | 16 | 286 | 4.8 | 11.3 | 0.15 | 0.15 | 0.15 | 79 | 1005.1 |
| 20260505162852 | 17 | 272 | 3.2 | 11.3 | 0.15 | 0.15 | 0.15 | 77 | 1005.5 |
| 20260505162351 | 17 | 269 | 4.8 | 14.5 | 0.13 | 0.13 | 0.10 | 75 | 1005.8 |
| 20260505161847 | 17 | 269 | 4.8 | 14.5 | 0.05 | 0.05 | 0.05 | 72 | 1005.5 |
| 20260505161345 | 17 | 257 | 4.8 | 14.5 | 0.05 | 0.05 | 0.05 | 71 | 1005.3 |
| 20260505160841 | 17 | 302 | 4.8 | 14.5 | 0.05 | 0.05 | 0.05 | 70 | 1005.2 |
| 20260505160332 | 18 | 277 | 6.4 | 24.1 | 0.05 | 0.05 | 0.05 | 69 | 1005.1 |
| 20260505153308 | 23 | 324 | 3.2 | 32.2 | 0.00 | 0.00 | 0.00 | 45 | 1004.1 |
| 20260505152920 | 24 | 46 | 1.6 | 4.8 | 0.00 | 0.00 | 0.00 | 37 | 1003.9 |
| 20260505152853 | 24 | 229 | 3.2 | 6.4 | 0.00 | 0.00 | 0.00 | 43 | 1003.9 |
| 20260505151807 | 25 | 117 | 1.6 | 4.8 | 0.00 | 0.00 | 0.00 | 38 | 1003.9 |
| 20260505151308 | 25 | 257 | 1.6 | 4.8 | 0.00 | 0.00 | 0.00 | 36 | 1003.9 |
| 20260505150807 | 25 | 277 | 1.6 | 4.8 | 0.00 | 0.00 | 0.00 | 36 | 1003.8 |
| 20260505150304 | 25 | 223 | 0.0 | 3.2 | 0.00 | 0.00 | 0.00 | 38 | 1003.9 |
| 20260505140251 | 26 | 241 | 3.2 | 8.0 | 0.00 | 0.00 | 0.00 | 34 | 1004.3 |
| 20260505130249 | 26 | 135 | 3.2 | 6.4 | 0.00 | 0.00 | 0.00 | 31 | 1004.9 |
| 20260505130117 | 26 | 269 | 3.2 | 9.7 | 0.00 | 0.00 | 0.00 | 31 | 1005.0 |
| 20260505124750 | 26 | 1 | 4.8 | 9.7 | 0.00 | 0.00 | 0.00 | 31 | 1005.1 |
| 20260505124248 | 26 | 66 | 3.2 | 12.9 | 0.00 | 0.00 | 0.00 | 31 | 1005.1 |
| 20260505123756 | 27 | 124 | 3.2 | 12.9 | 0.00 | 0.00 | 0.00 | 31 | 1005.2 |
| 20260505123249 | 27 | 28 | 4.8 | 12.9 | 0.00 | 0.00 | 0.00 | 31 | 1005.2 |
| 20260505122747 | 27 | 135 | 4.8 | 12.9 | 0.00 | 0.00 | 0.00 | 31 | 1005.2 |
| 20260505122550 | 27 | 127 | 3.2 | 12.9 | 0.00 | 0.00 | 0.00 | 33 | 1005.3 |
| 20260505121749 | 27 | 63 | 3.2 | 12.9 | 0.00 | 0.00 | 0.00 | 34 | 1005.3 |
| 20260505121246 | 26 | 39 | 3.2 | 8.0 | 0.00 | 0.00 | 0.00 | 33 | 1005.4 |
| 20260505120744 | 26 | 269 | 3.2 | 9.7 | 0.00 | 0.00 | 0.00 | 34 | 1005.4 |
| 20260505120246 | 26 | 234 | 4.8 | 11.3 | 0.00 | 0.00 | 0.00 | 34 | 1005.4 |
| 20260505120103 | 26 | 187 | 4.8 | 11.3 | 0.00 | 0.00 | 0.00 | 34 | 1005.5 |
| 20260505115246 | 26 | 232 | 3.2 | 9.7 | 0.00 | 0.00 | 0.00 | 33 | 1005.5 |
| 20260505115041 | 26 | 231 | 3.2 | 6.4 | 0.00 | 0.00 | 0.00 | 34 | 1005.5 |
| 20260505114243 | 26 | 234 | 3.2 | 11.3 | 0.00 | 0.00 | 0.00 | 36 | 1005.5 |